Location: Fundy National Park
(45.6138°N, 65.0316°W)
Time: 11:35:33
(UTC-04:00)

BlueWalker 3 - Pass Details

Date: 07 December 2022
Orbit: 499 x 517 km, 53.2° (Epoch: 01 February)

Event Time Altitude Azimuth Distance (km) Brightness Sun altitude
Rises 18:30:47 0° 302° (WNW) 2,627 6.3 -19.2°
Reaches altitude 10° 18:33:01 10° 306° (NW) 1,735 5.2 -19.6°
Maximum altitude 18:36:54 63° 28° (NNE) 573 1.9 -20.3°
Enters shadow 18:37:02 62° 40° (NE) 576 1.9 -20.3°
